Station History

Weather Underground - logo

Station Historical Data
 
Daily Summary for February 23, 2018 Units:  Metric    English   Both
« Previous Day
Next Day »
Daily Weekly Monthly Yearly Custom
  Current: High: Low: Average:
Temperature: 11.7 °C 11.7 °C 1.2 °C 5.8 °C
Dew Point: -0.2 °C 3.8 °C -0.2 °C 2.2 °C
Humidity: 44 % 95 % 44 % 79 %
Wind Speed: 9.3 km/h 14.8 km/h 0 km/h 3.2 km/h
Wind Gust: 9.3 km/h 14.8 km/h - -
Wind:NW - - WNW
Pressure: 1026.3 hPa 1027.7 hPa 1023.2 hPa -
Precipitation: 0.25 mm      
Historical Graphs
 
 
Tabular Data for February 23, 2018
Time Temperature Dew Point Pressure Wind Wind Speed Wind Gust Humidity Rainfall Rate (Hourly)
00:03 6.1 °C 3.7 °C 1023.2 hPa NW 1.9 km/h   85 % 0 mm
00:08 6 °C 3.8 °C 1023.2 hPa NW 3.7 km/h 3.7 km/h 86 % 0 mm
00:13 5.8 °C 3.7 °C 1023.6 hPa NW 5.6 km/h 5.6 km/h 86 % 0 mm
00:18 5.8 °C 3.4 °C 1023.6 hPa WNW 5.6 km/h 5.6 km/h 85 % 0 mm
00:24 5.7 °C 3.2 °C 1023.6 hPa NW 5.6 km/h 5.6 km/h 84 % 0 mm
00:29 5.6 °C 3.1 °C 1023.6 hPa NW 3.7 km/h 3.7 km/h 84 % 0 mm
00:34 5.4 °C 2.9 °C 1023.6 hPa WNW 1.9 km/h 1.9 km/h 84 % 0 mm
00:39 5.3 °C 3 °C 1023.6 hPa NW 1.9 km/h 1.9 km/h 85 % 0 mm
00:44 5.3 °C 2.9 °C 1023.2 hPa WNW 3.7 km/h   85 % 0 mm
00:49 5.3 °C 2.9 °C 1023.6 hPa WNW 3.7 km/h 3.7 km/h 85 % 0 mm
00:54 5.4 °C 2.9 °C 1023.6 hPa NW 3.7 km/h 3.7 km/h 84 % 0 mm
00:59 5.7 °C 3 °C 1023.6 hPa NW 1.9 km/h   83 % 0 mm
01:04 5.7 °C 3.1 °C 1023.6 hPa West 1.9 km/h   83 % 0 mm
01:09 5.7 °C 2.9 °C 1023.6 hPa West 1.9 km/h   82 % 0 mm
01:14 5.7 °C 3 °C 1023.6 hPa West 1.9 km/h   83 % 0 mm
01:19 5.6 °C 2.9 °C 1023.6 hPa Calm     83 % 0 mm
01:24 5.6 °C 2.9 °C 1023.6 hPa Calm     83 % 0 mm
01:29 5.4 °C 2.9 °C 1023.6 hPa Calm     84 % 0 mm
01:34 5.4 °C 2.9 °C 1023.6 hPa Calm     84 % 0 mm
01:39 5.3 °C 2.9 °C 1023.6 hPa Calm     85 % 0 mm
01:44 5.2 °C 2.8 °C 1023.6 hPa Calm     85 % 0 mm
01:49 5.2 °C 3 °C 1023.2 hPa Calm     86 % 0 mm
01:54 5.2 °C 3 °C 1023.6 hPa Calm     86 % 0 mm
01:59 5.2 °C 3 °C 1023.6 hPa Calm     86 % 0 mm
02:04 5.2 °C 3 °C 1023.6 hPa Calm     86 % 0 mm
02:09 5.2 °C 3.1 °C 1023.6 hPa Calm     86 % 0 mm
02:14 5.3 °C 2.9 °C 1023.6 hPa Calm     85 % 0 mm
02:19 5.3 °C 3 °C 1023.6 hPa Calm     85 % 0 mm
02:24 5.3 °C 2.8 °C 1023.6 hPa Calm     84 % 0 mm
02:29 5.3 °C 2.8 °C 1023.6 hPa West 1.9 km/h   84 % 0 mm
02:34 5.2 °C 2.6 °C 1023.6 hPa Calm     83 % 0 mm
02:39 5.2 °C 2.5 °C 1023.6 hPa Calm     83 % 0 mm
02:44 4.9 °C 2.3 °C 1023.6 hPa Calm   0.2 km/h 83 % 0 mm
02:49 4.6 °C 2.1 °C 1023.6 hPa Calm     84 % 0 mm
02:54 4.3 °C 2 °C 1023.6 hPa Calm     85 % 0 mm
02:59 4.1 °C 2 °C 1023.6 hPa West 1.9 km/h 1.9 km/h 86 % 0 mm
03:04 4 °C 1.9 °C 1023.6 hPa Calm     86 % 0 mm
03:09 3.8 °C 1.9 °C 1023.6 hPa Calm     87 % 0 mm
03:15 3.7 °C 1.9 °C 1023.6 hPa West 1.9 km/h   88 % 0 mm
03:20 3.7 °C 1.9 °C 1023.6 hPa Calm     88 % 0 mm
03:25 3.6 °C 1.8 °C 1023.6 hPa West 1.9 km/h 1.9 km/h 88 % 0 mm
03:30 3.7 °C 1.9 °C 1023.6 hPa West 1.9 km/h   88 % 0 mm
03:35 3.7 °C 1.9 °C 1023.6 hPa NW 1.9 km/h 1.9 km/h 88 % 0 mm
03:40 3.6 °C 1.8 °C 1023.6 hPa NW 1.9 km/h 1.9 km/h 88 % 0 mm
03:45 3.6 °C 1.8 °C 1023.9 hPa NW 1.9 km/h 1.9 km/h 88 % 0 mm
03:50 3.6 °C 1.9 °C 1023.9 hPa NW 1.9 km/h 1.9 km/h 89 % 0 mm
03:55 3.6 °C 1.9 °C 1023.9 hPa NW 1.9 km/h 1.9 km/h 89 % 0 mm
04:00 3.7 °C 2 °C 1023.9 hPa Calm     89 % 0 mm
04:05 3.7 °C 2.1 °C 1023.9 hPa Calm     89 % 0 mm
04:10 3.8 °C 2 °C 1023.9 hPa Calm     88 % 0 mm
04:15 3.9 °C 2.1 °C 1023.9 hPa Calm     88 % 0 mm
04:20 3.9 °C 2.1 °C 1024.3 hPa Calm     88 % 0 mm
04:25 3.9 °C 2.1 °C 1024.3 hPa Calm     88 % 0 mm
04:30 3.9 °C 2.1 °C 1024.3 hPa Calm     88 % 0 mm
04:35 3.7 °C 1.9 °C 1024.3 hPa Calm     88 % 0 mm
04:40 3.4 °C 1.7 °C 1024.3 hPa Calm     88 % 0 mm
04:45 3.3 °C 1.6 °C 1024.3 hPa Calm     89 % 0 mm
04:50 3.2 °C 1.7 °C 1024.3 hPa Calm     90 % 0 mm
04:55 3.1 °C 1.4 °C 1024.3 hPa Calm     89 % 0 mm
05:00 2.9 °C 1.4 °C 1024.6 hPa Calm     90 % 0 mm
05:05 2.8 °C 1.3 °C 1024.3 hPa Calm     90 % 0 mm
05:10 2.7 °C 1.2 °C 1024.3 hPa Calm     90 % 0 mm
05:15 2.5 °C 1 °C 1024.3 hPa Calm     90 % 0 mm
05:20 2.4 °C 1.1 °C 1024.3 hPa Calm     91 % 0 mm
05:25 2.3 °C 1 °C 1024.6 hPa Calm     91 % 0 mm
05:30 2.3 °C 0.9 °C 1024.6 hPa Calm     91 % 0 mm
05:35 2.2 °C 0.8 °C 1024.6 hPa Calm     91 % 0 mm
05:40 2.1 °C 0.7 °C 1024.6 hPa Calm     91 % 0 mm
05:45 1.9 °C 0.8 °C 1024.6 hPa Calm     92 % 0 mm
05:50 2 °C 0.8 °C 1024.9 hPa Calm     92 % 0 mm
05:55 1.9 °C 0.7 °C 1024.9 hPa Calm     92 % 0 mm
06:00 1.8 °C 0.7 °C 1024.9 hPa Calm     92 % 0 mm
06:05 1.7 °C 0.5 °C 1024.9 hPa Calm     92 % 0 mm
06:10 1.6 °C 0.4 °C 1024.9 hPa Calm     92 % 0 mm
06:15 1.6 °C 0.6 °C 1024.9 hPa Calm     93 % 0 mm
06:20 1.7 °C 0.7 °C 1024.9 hPa Calm     93 % 0 mm
06:25 1.7 °C 0.7 °C 1024.9 hPa Calm     93 % 0 mm
06:30 1.7 °C 0.7 °C 1025.3 hPa Calm     93 % 0 mm
06:35 1.6 °C 0.6 °C 1025.3 hPa Calm     93 % 0 mm
06:40 1.6 °C 0.6 °C 1025.3 hPa Calm     93 % 0 mm
06:45 1.6 °C 0.6 °C 1025.6 hPa Calm     93 % 0 mm
06:50 1.4 °C 0.4 °C 1025.3 hPa Calm     93 % 0 mm
06:55 1.3 °C 0.3 °C 1025.6 hPa Calm     93 % 0 mm
07:00 1.2 °C 0.2 °C 1025.6 hPa Calm     93 % 0.25 mm
07:06 1.2 °C 0.2 °C 1026 hPa Calm     93 % 0.25 mm
07:11 1.4 °C 0.6 °C 1026 hPa Calm     94 % 0.25 mm
07:15 1.6 °C 0.7 °C 1026 hPa Calm     94 % 0.25 mm
07:20 1.8 °C 0.9 °C 1026 hPa Calm     94 % 0.25 mm
07:26 2.2 °C 1.4 °C 1026 hPa Calm     95 % 0.25 mm
07:31 2.3 °C 1.6 °C 1026 hPa Calm     95 % 0.25 mm
07:36 2.6 °C 1.8 °C 1026.3 hPa Calm     95 % 0.25 mm
07:41 2.9 °C 2.2 °C 1026.3 hPa Calm     95 % 0.25 mm
07:46 3.3 °C 2.4 °C 1026.3 hPa Calm     94 % 0.25 mm
07:51 3.8 °C 2.6 °C 1026.3 hPa Calm     92 % 0.25 mm
07:56 4.1 °C 2.6 °C 1026.6 hPa WNW 1.9 km/h 1.9 km/h 90 % 0 mm
08:01 4.3 °C 2.7 °C 1026.6 hPa WNW 1.9 km/h   89 % 0 mm
08:06 4.6 °C 2.8 °C 1026.6 hPa WNW 1.9 km/h 1.9 km/h 88 % 0 mm
08:11 4.8 °C 2.6 °C 1026.6 hPa NW 5.6 km/h 5.6 km/h 86 % 0 mm
08:16 4.9 °C 2.6 °C 1026.6 hPa NNW 5.6 km/h 5.6 km/h 85 % 0 mm
08:21 5.1 °C 2.8 °C 1026.6 hPa NNW 1.9 km/h 1.9 km/h 85 % 0 mm
08:26 5.3 °C 2.6 °C 1026.6 hPa East 7.4 km/h 7.4 km/h 83 % 0 mm
08:31 5.4 °C 2.6 °C 1026.6 hPa NW 5.6 km/h 5.6 km/h 82 % 0 mm
08:36 5.6 °C 2.7 °C 1026.6 hPa NW 5.6 km/h 5.6 km/h 82 % 0 mm
08:41 5.7 °C 2.7 °C 1027 hPa WNW 5.6 km/h 5.6 km/h 81 % 0 mm
08:46 5.8 °C 2.8 °C 1027 hPa NW 5.6 km/h 5.6 km/h 81 % 0 mm
08:51 5.9 °C 2.9 °C 1027 hPa NW 5.6 km/h 5.6 km/h 81 % 0 mm
08:56 6.1 °C 2.9 °C 1027 hPa NW 3.7 km/h 3.7 km/h 80 % 0 mm
09:01 6.3 °C 2.9 °C 1027 hPa WNW 5.6 km/h 5.6 km/h 79 % 0 mm
09:06 6.5 °C 3.1 °C 1027.3 hPa NNW 3.7 km/h 3.7 km/h 79 % 0 mm
09:11 6.6 °C 2.9 °C 1027.3 hPa NW 5.6 km/h 5.6 km/h 77 % 0 mm
09:16 6.7 °C 3.2 °C 1027.3 hPa NW 4.8 km/h 4.8 km/h 78 % 0 mm
09:21 6.9 °C 3.1 °C 1027.3 hPa West 3.2 km/h 3.2 km/h 77 % 0 mm
09:26 6.9 °C 3 °C 1027.3 hPa NE 5.6 km/h 5.6 km/h 76 % 0 mm
09:31 7.1 °C 3.2 °C 1027.3 hPa NNW 3.7 km/h 3.7 km/h 76 % 0 mm
09:36 7.2 °C 3.1 °C 1027.3 hPa NW 6.4 km/h 6.4 km/h 75 % 0 mm
09:41 7.3 °C 3.4 °C 1027.3 hPa NNW 5.6 km/h 5.6 km/h 76 % 0 mm
09:46 7.4 °C 3.4 °C 1027.7 hPa North 5.6 km/h 5.6 km/h 76 % 0 mm
09:51 7.4 °C 3.1 °C 1027.7 hPa NNW 7.4 km/h 7.4 km/h 74 % 0 mm
09:56 7.4 °C 3.1 °C 1027.7 hPa NNW 14.8 km/h 14.8 km/h 74 % 0 mm
10:01 7.3 °C 2.8 °C 1027.7 hPa NNW 7.4 km/h 7.4 km/h 73 % 0 mm
10:06 7.5 °C 3.2 °C 1027.7 hPa NW 5.6 km/h 5.6 km/h 74 % 0 mm
10:11 7.8 °C 3.6 °C 1027.7 hPa NNW 5.6 km/h 5.6 km/h 75 % 0 mm
10:16 7.8 °C 3.3 °C 1027.7 hPa WNW 9.3 km/h 9.3 km/h 73 % 0 mm
10:21 7.7 °C 3.3 °C 1027.7 hPa WNW 5.6 km/h 5.6 km/h 74 % 0 mm
10:26 7.8 °C 3.3 °C 1027.7 hPa West 5.6 km/h 5.6 km/h 73 % 0 mm
10:31 8.1 °C 3.2 °C 1027.7 hPa NW 5.6 km/h 5.6 km/h 71 % 0 mm
10:36 8.1 °C 3.3 °C 1027.7 hPa NNW 4.8 km/h 4.8 km/h 72 % 0 mm
10:41 8.3 °C 3.6 °C 1027.7 hPa WNW 7.4 km/h 7.4 km/h 72 % 0 mm
10:46 8.3 °C 3.2 °C 1027.7 hPa WSW 3.7 km/h 3.7 km/h 70 % 0 mm
10:51 8.6 °C 3.4 °C 1027.7 hPa WNW 1.9 km/h 1.9 km/h 70 % 0 mm
10:52 8.6 °C 3.2 °C 1027.7 hPa WNW 1.9 km/h 1.9 km/h 69 % 0 mm
10:57 8.8 °C 3.2 °C 1027.7 hPa NNW 7.4 km/h 7.4 km/h 68 % 0 mm
11:02 8.7 °C 3.1 °C 1027.7 hPa NNW 1.9 km/h 1.9 km/h 68 % 0 mm
11:07 9 °C 3 °C 1027.7 hPa WNW 6.4 km/h 6.4 km/h 66 % 0 mm
11:12 9.1 °C 2.6 °C 1027.7 hPa NNW 3.7 km/h 3.7 km/h 64 % 0 mm
11:17 9.2 °C 2.8 °C 1027.3 hPa WNW 5.6 km/h 5.6 km/h 64 % 0 mm
11:22 9 °C 2.1 °C 1027.3 hPa NNW 7.4 km/h 7.4 km/h 62 % 0 mm
11:27 9.1 °C 2.7 °C 1027.3 hPa NW 8 km/h 8 km/h 64 % 0 mm
11:32 9.4 °C 2.2 °C 1027.3 hPa NW 5.6 km/h 5.6 km/h 61 % 0 mm
11:37 9.5 °C 2.3 °C 1027.3 hPa NW 3.7 km/h 3.7 km/h 61 % 0 mm
11:42 9.9 °C 2.7 °C 1027 hPa NW 6.4 km/h 6.4 km/h 61 % 0 mm
11:47 9.9 °C 2.2 °C 1027 hPa WNW 6.4 km/h 6.4 km/h 59 % 0 mm
11:52 10.1 °C 2.4 °C 1027 hPa NNW 5.6 km/h 5.6 km/h 59 % 0 mm
11:57 10.3 °C 2.7 °C 1027 hPa NW 5.6 km/h 5.6 km/h 59 % 0 mm
12:02 10.3 °C 2.1 °C 1027 hPa NW 5.6 km/h 5.6 km/h 57 % 0 mm
12:07 10.4 °C 2.2 °C 1027 hPa NW 9.3 km/h 9.3 km/h 57 % 0 mm
12:12 10.5 °C 2.1 °C 1027 hPa WNW 7.4 km/h 7.4 km/h 56 % 0 mm
12:17 10.6 °C 1.9 °C 1027 hPa WNW 11.1 km/h 11.1 km/h 55 % 0 mm
12:22 10.6 °C 1.9 °C 1027 hPa NW 9.3 km/h 9.3 km/h 55 % 0 mm
12:27 10.4 °C 1.7 °C 1027 hPa NNW 5.6 km/h 5.6 km/h 55 % 0 mm
12:32 10.6 °C 1.9 °C 1027 hPa NW 14.8 km/h 14.8 km/h 55 % 0 mm
12:37 10.3 °C 1.9 °C 1027 hPa NNW 5.6 km/h 5.6 km/h 56 % 0 mm
12:42 10.4 °C 1.7 °C 1026.6 hPa WNW 3.7 km/h 3.7 km/h 55 % 0 mm
12:47 10.9 °C 2.2 °C 1026.6 hPa NW 9.3 km/h 9.3 km/h 55 % 0 mm
12:52 11 °C 1.8 °C 1026.6 hPa NNW 3.7 km/h 3.7 km/h 53 % 0 mm
12:57 10.9 °C 2.2 °C 1026.6 hPa NW 7.4 km/h 7.4 km/h 55 % 0 mm
13:03 10.8 °C 1.6 °C 1026.3 hPa NW 8 km/h 8 km/h 53 % 0 mm
13:08 10.8 °C 1.1 °C 1026.3 hPa NW 7.4 km/h 7.4 km/h 51 % 0 mm
13:13 11.2 °C 1.4 °C 1026.3 hPa WNW 14.8 km/h 14.8 km/h 51 % 0 mm
13:18 11.1 °C 0.8 °C 1026.6 hPa NW 9.3 km/h 9.3 km/h 49 % 0 mm
13:23 11.1 °C 1.6 °C 1026.3 hPa WNW 6.4 km/h 6.4 km/h 52 % 0 mm
13:28 11.2 °C 0.8 °C 1026.3 hPa NW 9.3 km/h 9.3 km/h 49 % 0 mm
13:33 11.3 °C 1 °C 1026.3 hPa WNW 7.4 km/h 7.4 km/h 49 % 0 mm
13:38 11.2 °C 0.6 °C 1026.3 hPa WNW 5.6 km/h 5.6 km/h 48 % 0 mm
13:43 11.5 °C 1.4 °C 1026.3 hPa NW 8 km/h 8 km/h 50 % 0 mm
13:48 11.6 °C 0.6 °C 1026 hPa WNW 5.6 km/h 5.6 km/h 47 % 0 mm
13:53 11.5 °C 0.3 °C 1026 hPa NW 11.1 km/h 11.1 km/h 46 % 0 mm
13:58 11.6 °C 0.9 °C 1026 hPa NW 9.3 km/h 9.3 km/h 48 % 0 mm
14:03 11.7 °C -0.2 °C 1026.3 hPa NW 9.3 km/h 9.3 km/h 44 % 0 mm
Park Place, Exeter, Tulare County, California, USA
Compliments of Weather Underground - 2 mb